Menominee, MI

2:59 AM CDT on June 25, 2017 (GMT -0500)
Menominee-Marinette Twin County

Weather History for KMNM - March, 2012

Change the Weather History Date:

Sunday, March 25, 2012

  Actual Average Record
Temperature  
Mean Temperature 44 °F -  
Max Temperature 48 °F 44 °F 61 °F (1968)
Min Temperature 37 °F 24 °F 4 °F (1960)
Degree Days  
Heating Degree Days 22    
Moisture  
Dew Point 39 °F    
Average Humidity 77    
Maximum Humidity 93    
Minimum Humidity 62    
Precipitation  
Precipitation 0.00 in - - ()
Sea Level Pressure  
Sea Level Pressure 30.05 in    
Wind  
Wind Speed 5 mph (ENE)    
Max Wind Speed 18 mph    
Max Gust Speed 25 mph    
Visibility 10 miles    
Events      
Averages and records for this station are not official NWS values.
T = Trace of Precipitation, MM = Missing Value Source: NWS Daily Summary

Daily Weather History Graph

Daily Weather History Graph

Search for Another Location

Airport or City:

Trip Planner

Search our weather history database for the weather conditions in past years. The results will help you decide how hot, cold, wet, or windy it might be!

Date:

Astronomy

Mar. 25, 2012 Rise Set
Actual Time 6:43 AM CDT 7:10 PM CDT
Civil Twilight 6:13 AM CDT 7:39 PM CDT
Nautical Twilight 5:39 AM CDT 8:14 PM CDT
Astronomical Twilight 5:03 AM CDT 8:50 PM CDT
Moon 7:45 AM CDT 10:37 PM CDT
Length of Visible Light 13h 25m
Length of Day
12h 26m
Waxing Crescent, 9% of the Moon is Illuminated
Mar 25
Waxing Crescent
Mar 30
First Quarter
Apr 6
Full
Apr 13
Last Quarter
Apr 21
New

Hourly Weather History & Observations

Time (CDT) Temp. Windchill Dew Point Humidity Pressure Visibility Wind Dir Wind Speed Gust Speed Precip Events Conditions
12:15 AM 44.6 °F - 37.4 °F 76% 29.95 in 10.0 mi Calm Calm - N/A   Overcast
12:35 AM 44.6 °F - 37.4 °F 76% 29.95 in 10.0 mi Calm Calm - N/A   Overcast
12:55 AM 44.6 °F 43.1 °F 37.4 °F 76% 29.96 in 10.0 mi NW 3.5 mph - N/A   Overcast
1:15 AM 44.6 °F - 39.2 °F 81% 29.95 in 10.0 mi Calm Calm - N/A   Overcast
1:35 AM 44.6 °F - 37.4 °F 76% 29.95 in 10.0 mi Calm Calm - N/A   Scattered Clouds
1:55 AM 42.8 °F - 37.4 °F 81% 29.95 in 10.0 mi Calm Calm - N/A   Clear
2:15 AM 42.8 °F - 39.2 °F 87% 29.95 in 10.0 mi Calm Calm - N/A   Clear
2:35 AM 41.0 °F - 37.4 °F 87% 29.95 in 10.0 mi Calm Calm - N/A   Clear
2:55 AM 41.0 °F - 37.4 °F 87% 29.94 in 10.0 mi Calm Calm - N/A   Clear
3:15 AM 41.0 °F - 37.4 °F 87% 29.94 in 10.0 mi Calm Calm - N/A   Mostly Cloudy
3:35 AM 41.0 °F - 39.2 °F 93% 29.94 in 10.0 mi Calm Calm - N/A   Mostly Cloudy
3:55 AM 41.0 °F 39.0 °F 37.4 °F 87% 29.95 in 10.0 mi NW 3.5 mph - N/A   Partly Cloudy
4:15 AM 42.8 °F 41.1 °F 39.2 °F 87% 29.95 in 10.0 mi NW 3.5 mph - N/A   Clear
4:35 AM 44.6 °F 42.2 °F 41.0 °F 87% 29.95 in 10.0 mi NNW 4.6 mph - N/A   Clear
4:55 AM 44.6 °F 42.2 °F 42.8 °F 93% 29.96 in 10.0 mi NW 4.6 mph - N/A   Partly Cloudy
5:15 AM 46.4 °F 43.5 °F 44.6 °F 93% 29.96 in 10.0 mi NNW 5.8 mph - N/A   Scattered Clouds
5:35 AM 46.4 °F 43.5 °F 44.6 °F 93% 29.98 in 10.0 mi NNW 5.8 mph - N/A   Mostly Cloudy
5:55 AM 46.4 °F 43.5 °F 44.6 °F 93% 29.98 in 10.0 mi NNW 5.8 mph - N/A   Mostly Cloudy
6:15 AM 46.4 °F 43.5 °F 44.6 °F 93% 29.99 in 10.0 mi North 5.8 mph - N/A   Mostly Cloudy
6:35 AM 46.4 °F 41.9 °F 44.6 °F 93% 30.00 in 10.0 mi NNW 9.2 mph - N/A   Partly Cloudy
6:55 AM 46.4 °F 42.9 °F 42.8 °F 87% 30.01 in 10.0 mi NNW 6.9 mph - N/A   Partly Cloudy
7:15 AM 46.4 °F 44.3 °F 42.8 °F 87% 30.03 in 10.0 mi East 4.6 mph - N/A   Mostly Cloudy
7:35 AM 46.4 °F 45.2 °F 44.6 °F 93% 30.04 in 10.0 mi NNE 3.5 mph - N/A   Overcast
7:55 AM 48.2 °F - 44.6 °F 87% 30.05 in 10.0 mi Calm Calm - N/A   Overcast
8:15 AM 48.2 °F - 44.6 °F 87% 30.05 in 10.0 mi NNE 4.6 mph - N/A   Overcast
8:35 AM 48.2 °F - 44.6 °F 87% 30.06 in 10.0 mi North 6.9 mph - N/A   Overcast
8:55 AM 48.2 °F - 42.8 °F 82% 30.06 in 10.0 mi North 5.8 mph - N/A   Overcast
9:15 AM 46.4 °F 42.4 °F 41.0 °F 81% 30.07 in 10.0 mi East 8.1 mph - N/A   Overcast
9:35 AM 46.4 °F 42.4 °F 41.0 °F 81% 30.07 in 10.0 mi ESE 8.1 mph - N/A   Overcast
9:55 AM 46.4 °F 42.4 °F 39.2 °F 76% 30.08 in 10.0 mi East 8.1 mph - N/A   Overcast
10:15 AM 46.4 °F 42.4 °F 41.0 °F 81% 30.08 in 10.0 mi ESE 8.1 mph - N/A   Mostly Cloudy
10:35 AM 46.4 °F 42.4 °F 39.2 °F 76% 30.08 in 10.0 mi East 8.1 mph - N/A   Partly Cloudy
10:55 AM 46.4 °F 41.9 °F 39.2 °F 76% 30.09 in 10.0 mi East 9.2 mph - N/A   Partly Cloudy
11:15 AM 46.4 °F 42.4 °F 37.4 °F 71% 30.09 in 10.0 mi East 8.1 mph - N/A   Clear
11:35 AM 46.4 °F 40.7 °F 37.4 °F 71% 30.09 in 10.0 mi East 12.7 mph - N/A   Clear
11:55 AM 46.4 °F 41.1 °F 37.4 °F 71% 30.09 in 10.0 mi East 11.5 mph - N/A   Clear
12:15 PM 48.2 °F - 37.4 °F 66% 30.09 in 10.0 mi ESE 12.7 mph - N/A   Clear
12:35 PM 48.2 °F - 37.4 °F 66% 30.09 in 10.0 mi ESE 12.7 mph - N/A   Clear
12:55 PM 46.4 °F 40.7 °F 37.4 °F 71% 30.09 in 10.0 mi East 12.7 mph - N/A   Clear
1:15 PM 48.2 °F - 37.4 °F 66% 30.09 in 10.0 mi ESE 10.4 mph - N/A   Clear
1:35 PM 48.2 °F - 37.4 °F 66% 30.08 in 10.0 mi East 9.2 mph - N/A   Clear
1:55 PM 48.2 °F - 37.4 °F 66% 30.08 in 10.0 mi ESE 9.2 mph - N/A   Clear
2:15 PM 48.2 °F - 37.4 °F 66% 30.08 in 10.0 mi ESE 8.1 mph - N/A   Clear
2:35 PM 48.2 °F - 37.4 °F 66% 30.08 in 10.0 mi ESE 10.4 mph - N/A   Clear
2:55 PM 48.2 °F - 37.4 °F 66% 30.08 in 10.0 mi ESE 10.4 mph - N/A   Clear
3:15 PM 48.2 °F - 35.6 °F 62% 30.09 in 10.0 mi East 11.5 mph - N/A   Clear
3:35 PM 48.2 °F - 37.4 °F 66% 30.09 in 10.0 mi East 11.5 mph - N/A   Clear
3:55 PM 48.2 °F - 35.6 °F 62% 30.09 in 10.0 mi ENE 15.0 mph - N/A   Clear
4:15 PM 46.4 °F 39.8 °F 35.6 °F 66% 30.10 in 10.0 mi ENE 16.1 mph - N/A   Clear
4:35 PM 46.4 °F 40.4 °F 35.6 °F 66% 30.10 in 10.0 mi ENE 13.8 mph - N/A   Clear
4:55 PM 46.4 °F 40.1 °F 33.8 °F 62% 30.11 in 10.0 mi ENE 15.0 mph - N/A   Clear
5:15 PM 44.6 °F 37.4 °F 33.8 °F 66% 30.13 in 10.0 mi East 16.1 mph 20.7 mph N/A   Clear
5:35 PM 44.6 °F 37.8 °F 33.8 °F 66% 30.14 in 10.0 mi ENE 15.0 mph - N/A   Clear
5:55 PM 42.8 °F 34.5 °F 32.0 °F 66% 30.15 in 10.0 mi East 18.4 mph 21.9 mph N/A   Clear
6:15 PM 42.8 °F 34.5 °F 32.0 °F 66% 30.16 in 10.0 mi East 18.4 mph 24.2 mph N/A   Clear
6:35 PM 39.2 °F 29.8 °F 32.0 °F 75% 30.17 in 10.0 mi East 18.4 mph 25.3 mph N/A   Clear
6:55 PM 39.2 °F 30.2 °F 30.2 °F 70% 30.17 in 10.0 mi East 17.3 mph - N/A   Clear
7:15 PM 37.4 °F 28.5 °F 32.0 °F 81% 30.18 in 10.0 mi East 15.0 mph 23.0 mph N/A   Clear
7:35 PM 39.2 °F 32.0 °F 33.8 °F 81% 30.19 in 10.0 mi ENE 11.5 mph - N/A   Clear
7:55 PM 37.4 °F 28.5 °F 28.4 °F 70% 30.21 in 10.0 mi NE 15.0 mph 19.6 mph N/A   Clear
8:15 PM 37.4 °F 28.5 °F 28.4 °F 70% 30.23 in 10.0 mi NE 15.0 mph - N/A   Clear
8:55 PM 35.6 °F 27.5 °F 28.4 °F 75% 30.26 in 10.0 mi NE 11.5 mph - N/A   Clear
9:35 PM 33.8 °F 24.8 °F 24.8 °F 70% 30.28 in 10.0 mi NNE 12.7 mph 19.6 mph N/A   Clear
9:55 PM 33.8 °F 24.3 °F 26.6 °F 75% 30.29 in 10.0 mi NNE 13.8 mph 19.6 mph N/A   Clear
10:15 PM 32.0 °F 21.6 °F 26.6 °F 80% 30.30 in 10.0 mi NNE 15.0 mph 18.4 mph N/A   Clear
10:35 PM 32.0 °F 21.6 °F 24.8 °F 75% 30.30 in 10.0 mi NE 15.0 mph 18.4 mph N/A   Clear
10:55 PM 32.0 °F 22.1 °F 24.8 °F 75% 30.30 in 10.0 mi NNE 13.8 mph 19.6 mph N/A   Clear
11:15 PM 30.2 °F 19.8 °F 24.8 °F 80% 30.31 in 10.0 mi NE 13.8 mph - N/A   Clear
11:35 PM 30.2 °F 20.2 °F 21.2 °F 69% 30.32 in 10.0 mi NNE 12.7 mph 19.6 mph N/A   Clear
11:55 PM 30.2 °F 20.2 °F 21.2 °F 69% 30.32 in 10.0 mi NNE 12.7 mph - N/A   Partly Cloudy